Suffolk, VA

4:23 AM EDT on March 24, 2017 (GMT -0400)
Suffolk Municipal

Weather History for KSFQ - December, 2011

Change the Weather History Date:

Thursday, December 8, 2011

  Actual Average Record
Temperature  
Mean Temperature 45 °F -  
Max Temperature 51 °F 56 °F 80 °F (1998)
Min Temperature 37 °F 36 °F 12 °F (1954)
Degree Days  
Heating Degree Days 20    
Moisture  
Dew Point 37 °F    
Average Humidity 75    
Maximum Humidity 93    
Minimum Humidity 47    
Precipitation  
Precipitation 0.01 in - - ()
Sea Level Pressure  
Sea Level Pressure 30.18 in    
Wind  
Wind Speed 6 mph (WNW)    
Max Wind Speed 16 mph    
Max Gust Speed 25 mph    
Visibility 10 miles    
Events      
Averages and records for this station are not official NWS values.
T = Trace of Precipitation, MM = Missing Value Source: NWS Daily Summary

Daily Weather History Graph

Daily Weather History Graph

Search for Another Location

Airport or City:

Trip Planner

Search our weather history database for the weather conditions in past years. The results will help you decide how hot, cold, wet, or windy it might be!

Date:

Astronomy

Dec. 08, 2011 Rise Set
Actual Time 7:06 AM EST 4:50 PM EST
Civil Twilight 6:37 AM EST 5:18 PM EST
Nautical Twilight 6:05 AM EST 5:51 PM EST
Astronomical Twilight 5:33 AM EST 6:22 PM EST
Moon 3:27 PM EST (12/8) 5:16 AM EST (12/8)
Length of Visible Light 10h 41m
Length of Day
9h 44m
Waxing Gibbous, 97% of the Moon is Illuminated
Dec 8
Waxing Gibbous
Dec 10
Full
Dec 17
Last Quarter
Dec 24
New
Jan 1
First Quarter

Hourly Weather History & Observations

Time (EST) Temp. Windchill Dew Point Humidity Pressure Visibility Wind Dir Wind Speed Gust Speed Precip Events Conditions
12:15 AM 46.4 °F 39.8 °F 42.8 °F 87% 29.85 in 10.0 mi NW 16.1 mph 25.3 mph N/A   Overcast
12:35 AM 46.4 °F 40.7 °F 42.8 °F 87% 29.87 in 10.0 mi NW 12.7 mph 20.7 mph 0.01 in   Overcast
12:55 AM 44.6 °F 39.7 °F 42.8 °F 93% 29.89 in 10.0 mi NW 9.2 mph 23.0 mph 0.01 in   Overcast
1:15 AM 44.6 °F 38.1 °F 41.0 °F 87% 29.91 in 10.0 mi NW 13.8 mph 19.6 mph N/A   Overcast
1:35 AM 44.6 °F 39.2 °F 39.2 °F 81% 29.93 in 10.0 mi NW 10.4 mph - N/A   Mostly Cloudy
1:55 AM 44.6 °F 40.2 °F 39.2 °F 81% 29.95 in 10.0 mi WNW 8.1 mph 16.1 mph N/A   Scattered Clouds
2:15 AM 44.6 °F 40.7 °F 39.2 °F 81% 29.98 in 10.0 mi WNW 6.9 mph - N/A   Scattered Clouds
2:35 AM 42.8 °F 40.1 °F 39.2 °F 87% 29.98 in 10.0 mi NW 4.6 mph - N/A   Scattered Clouds
2:55 AM 42.8 °F 41.1 °F 39.2 °F 87% 29.99 in 10.0 mi WNW 3.5 mph - N/A   Clear
3:15 AM 42.8 °F - 39.2 °F 87% 30.00 in 10.0 mi Calm Calm - N/A   Clear
3:35 AM 42.8 °F - 39.2 °F 87% 30.01 in 10.0 mi Calm Calm - N/A   Clear
3:55 AM 41.0 °F - 39.2 °F 93% 30.02 in 10.0 mi Calm Calm - N/A   Clear
4:15 AM 41.0 °F 37.1 °F 39.2 °F 93% 30.03 in 10.0 mi West 5.8 mph - N/A   Clear
4:35 AM 41.0 °F 39.0 °F 39.2 °F 93% 30.05 in 10.0 mi West 3.5 mph - N/A   Clear
4:55 AM 41.0 °F 39.0 °F 39.2 °F 93% 30.06 in 10.0 mi West 3.5 mph - N/A   Clear
5:15 AM 41.0 °F 38.0 °F 37.4 °F 87% 30.07 in 10.0 mi West 4.6 mph - N/A   Clear
5:35 AM 39.2 °F 35.9 °F 37.4 °F 93% 30.09 in 10.0 mi West 4.6 mph - N/A   Clear
6:15 AM 39.2 °F 37.0 °F 37.4 °F 93% 30.13 in 10.0 mi WNW 3.5 mph - N/A   Clear
6:35 AM 39.2 °F 37.0 °F 37.4 °F 93% 30.15 in 10.0 mi West 3.5 mph - N/A   Clear
6:55 AM 39.2 °F 35.9 °F 37.4 °F 93% 30.16 in 10.0 mi NW 4.6 mph - N/A   Clear
7:15 AM 39.2 °F 35.9 °F 35.6 °F 87% 30.17 in 10.0 mi NW 4.6 mph - N/A   Clear
7:35 AM 39.2 °F 35.0 °F 35.6 °F 87% 30.21 in 10.0 mi West 5.8 mph - N/A   Clear
7:55 AM 41.0 °F 38.0 °F 35.6 °F 81% 30.22 in 10.0 mi WNW 4.6 mph - N/A   Clear
8:15 AM 42.8 °F 39.3 °F 35.6 °F 76% 30.23 in 10.0 mi WNW 5.8 mph - N/A   Clear
8:35 AM 42.8 °F 41.1 °F 35.6 °F 76% 30.22 in 10.0 mi North 3.5 mph - N/A   Clear
8:55 AM 42.8 °F 38.6 °F 35.6 °F 76% 30.23 in 10.0 mi NNW 6.9 mph - N/A   Clear
9:15 AM 44.6 °F 41.4 °F 35.6 °F 71% 30.25 in 10.0 mi North 5.8 mph - N/A   Clear
9:35 AM 44.6 °F 42.2 °F 35.6 °F 71% 30.26 in 10.0 mi North 4.6 mph - N/A   Clear
9:55 AM 44.6 °F 40.2 °F 35.6 °F 71% 30.27 in 10.0 mi NW 8.1 mph - N/A   Clear
10:15 AM 46.4 °F 44.3 °F 35.6 °F 66% 30.27 in 10.0 mi NNW 4.6 mph - N/A   Clear
10:35 AM 46.4 °F 45.2 °F 35.6 °F 66% 30.27 in 10.0 mi WNW 3.5 mph - N/A   Clear
10:55 AM 46.4 °F 44.3 °F 35.6 °F 66% 30.27 in 10.0 mi NNE 4.6 mph - N/A   Clear
11:15 AM 46.4 °F - 35.6 °F 66% 30.27 in 10.0 mi Calm Calm - N/A   Clear
11:35 AM 48.2 °F - 35.6 °F 62% 30.27 in 10.0 mi West 5.8 mph - N/A   Clear
11:55 AM 48.2 °F - 33.8 °F 58% 30.27 in 10.0 mi Calm Calm - N/A   Clear
12:15 PM 48.2 °F - 33.8 °F 58% 30.27 in 10.0 mi Calm Calm - N/A   Clear
12:35 PM 50.0 °F - 33.8 °F 54% 30.28 in 10.0 mi WNW 4.6 mph - N/A   Clear
12:55 PM 51.8 °F - 35.6 °F 54% 30.27 in 10.0 mi WNW 6.9 mph - N/A   Clear
1:15 PM 50.0 °F - 33.8 °F 54% 30.28 in 10.0 mi Calm Calm - N/A   Clear
1:35 PM 51.8 °F - 33.8 °F 50% 30.28 in 10.0 mi West 6.9 mph - N/A   Clear
1:55 PM 51.8 °F - 32.0 °F 47% 30.27 in 10.0 mi Calm Calm - N/A   Clear
2:15 PM 51.8 °F - 32.0 °F 47% 30.25 in 10.0 mi Calm Calm - N/A   Clear
2:35 PM 51.8 °F - 32.0 °F 47% 30.25 in 10.0 mi Calm Calm - N/A   Clear
2:55 PM 51.8 °F - 33.8 °F 50% 30.26 in 10.0 mi Calm Calm - N/A   Clear
3:35 PM 51.8 °F - 33.8 °F 50% 30.27 in 10.0 mi West 3.5 mph - N/A   Clear
3:55 PM 50.0 °F - 33.8 °F 54% 30.28 in 10.0 mi WNW 3.5 mph - N/A   Clear
4:15 PM 50.0 °F - 33.8 °F 54% 30.28 in 10.0 mi Calm Calm - N/A   Clear
4:35 PM 48.2 °F - 35.6 °F 62% 30.29 in 10.0 mi WNW 3.5 mph - N/A   Clear
4:55 PM 46.4 °F - 35.6 °F 66% 30.30 in 10.0 mi Calm Calm - N/A   Clear
5:15 PM 44.6 °F - 35.6 °F 71% 30.30 in 10.0 mi Calm Calm - N/A   Clear
5:35 PM 42.8 °F - 37.4 °F 81% 30.31 in 10.0 mi Calm Calm - N/A   Clear
5:55 PM 42.8 °F - 37.4 °F 81% 30.32 in 10.0 mi Calm Calm - N/A   Clear
6:15 PM 39.2 °F - 37.4 °F 93% 30.32 in 10.0 mi Calm Calm - N/A   Clear
6:35 PM 39.2 °F - 35.6 °F 87% 30.34 in 10.0 mi Calm Calm - N/A   Clear
6:55 PM 39.2 °F - 35.6 °F 87% 30.34 in 10.0 mi Calm Calm - N/A   Clear
7:15 PM 37.4 °F - 35.6 °F 93% 30.35 in 10.0 mi Calm Calm - N/A   Clear
7:35 PM 37.4 °F - 35.6 °F 93% 30.36 in 10.0 mi Calm Calm - N/A   Clear
8:15 PM 37.4 °F - 35.6 °F 93% 30.36 in 10.0 mi Calm Calm - N/A   Clear
8:35 PM 37.4 °F - 35.6 °F 93% 30.36 in 10.0 mi Calm Calm - N/A   Clear
8:55 PM 35.6 °F - 35.6 °F 100% 30.37 in 10.0 mi Calm Calm - N/A   Clear
9:15 PM 35.6 °F - 33.8 °F 93% 30.36 in 10.0 mi Calm Calm - N/A   Clear
9:35 PM 35.6 °F - 33.8 °F 93% 30.36 in 10.0 mi Calm Calm - N/A   Clear
9:55 PM 33.8 °F - 33.8 °F 100% 30.36 in 10.0 mi Calm Calm - N/A   Clear
10:15 PM 35.6 °F - 33.8 °F 93% 30.37 in 10.0 mi Calm Calm - N/A   Clear
10:35 PM 35.6 °F - 33.8 °F 93% 30.37 in 10.0 mi Calm Calm - N/A   Clear
10:55 PM 35.6 °F - 33.8 °F 93% 30.37 in 10.0 mi Calm Calm - N/A   Clear
11:15 PM 33.8 °F - 33.8 °F 100% 30.37 in 10.0 mi Calm Calm - N/A   Clear
11:35 PM 33.8 °F - 33.8 °F 100% 30.37 in 10.0 mi Calm Calm - N/A   Clear
11:55 PM 33.8 °F - 33.8 °F 100% 30.37 in 10.0 mi Calm Calm - N/A   Clear